SL-8 DEB, 56997

Orbit data source: Space-Track

SL-8 DEB, 56997 is space debris in LEO originally from a launch on Wed, 13 Oct 1971 UTC launched from the Plesetsk Missile And Space Complex (PKMTR). Debris objects in space refer to the collection of defunct objects orbiting the Earth. Examples of debris include non-operational satellites, rocket bodies, and fragments generated from explosions, collisions, or faulty payload assembly.

Loading next visibility...
Identifier
56997, 1971-086K
Orbit
LEO
Country
Flag of CISCIS
Related business
Manufacturer
RVSN
Mission
Spacecraft
Bus & Motor
Unknown
Mass
Unknown
Launch date (UTC)
1971-10-13 (55 years ago)
Launch vehicle
Unknown
Launch site
Plesetsk Missile And Space Complex (PKMTR)
Object type
Payload
Rocket body
Debris
Shape & HBR
Unknown shape, 0.1 m
Radar Cross Section
Medium (>0.1 m² and <1 m²)

Expand to show TLE details & history
Last TLE update: 11 months ago

TLE from 11 months ago
0 SL-8 DEB
1 56997U 71086K   25192.08919194  .00000043  00000-0  50040-3 0  9997
2 56997  74.0230  72.4683 0076147  73.3906 357.1599 12.27882780521425
Epoch: 2025-07-11T02:08Z
TLE epoch observation values (Epoch: 2025-07-11T02:08:26.183Z)
Latitude
65.08457°
Longitude
148.9454°
Altitude
1,508.891 km
Speed
7.143 km/s
True Right ascension
07h 21m 12s
True Declination
64° 57' 56"
Sunlit
Object was in daylight at epoch
Visualization orbit readout
Latitude
Unknown
Longitude
Unknown
Altitude
Unknown
Speed
Unknown
Apparent Right ascension
Unknown
Apparent Declination
Unknown
Sunlit
N/A
Visualization observer readout
Local Sidereal Time
21:27:04
Azimuth
Unknown
Elevation
Unknown
Doppler factor
Unknown
Orbital elements
Apogee altitude
1,616.67 km
Perigee altitude
1,495.834 km
Semi-major axis
7,934.389 km
Eccentricity
0.00761
Inclination
74.023°
RAAN
72.4683°
Arg. of periapsis
73.3906°
True anomaly
357.11625°
Mean anomaly
357.1599°
Eccentric anomaly
357.13812°
Mean motion
3.07095 °/min
Orbital period
117.23 mins
BSTAR
0.0005004
Loading maneuver chart data...
Computing Atmospheric mass density...
Loading historical data...
Loading historical data...
Loading historical data...
Loading historical data...
Loading historical data...
Loading historical data...
Loading historical data...

Documentation

Showing up to 5 results
|